User: anonymous   Login
Location: Ciudad Delicias
(28.2170°N, 105.4670°W)
Time: 07:36:58
(UTC-07:00)
Language:

ETS-7 - Orbit

View from above orbital plane
View from above orbital plane
View from above satellite
View from above satellite

Ground track
Ground track

The orbit data is extracted from the following two-line orbital elements,

1 25064U 97074B   15030.88863781  .00036498  00000-0  42190-3 0  3692
2 25064 034.9564 207.7159 0004300 051.7445 094.2872 15.60799945956607
Epoch (UTC): 30 January 2015 21:19:38
Eccentricity: 0.0004300
inclination: 34.9564°
perigee height: 382 km
apogee height: 388 km
right ascension of ascending node: 207.7159°
argument of perigee: 51.7445°
revolutions per day: 15.60799945
mean anomaly at epoch: 94.2872°
orbit number at epoch: 95660

The dashed part of the orbit path shows where the satellite is in the earth's shadow,  

DLR